Wind_Speed
18 18 17 16 15 14 13 13 12 12 11 10 10 9 9 9 8 9 9 8 9 8 8 8 8 8 6 6 6 6 5 5 5 5 6 6 6 6 5 4 4 3
19 19 18 17 16 15 15 14 12 12 12 11 10 9 9 10 9 9 9 9 9 9 9 9 9 8 7 6 6 6 5 6 5 5 5 6 6 6 6 6 6 4
20 20 19 19 18 17 16 15 13 13 12 12 12 11 10 10 10 10 10 9 9 9 9 9 9 9 9 8 7 7 6 6 6 5 5 6 5 5 6 6 6 6
22 22 21 21 19 18 17 16 15 14 14 13 13 12 11 10 10 10 10 10 10 10 10 10 10 10 10 9 9 8 7 7 7 6 5 5 5 5 6 5 6 6
23 23 22 21 20 19 17 18 17 16 15 14 13 13 12 12 11 11 11 11 11 11 11 11 11 11 11 10 10 9 8 8 8 8 7 6 6 6 6 5 5 6
22 23 23 22 20 19 19 19 18 17 16 15 14 14 13 13 14 13 12 12 12 11 11 12 12 12 11 11 11 10 9 9 9 9 9 8 7 6 6 5 6 6
22 22 23 22 21 20 20 19 18 17 17 15 15 15 15 15 15 14 14 13 13 12 12 12 12 12 12 11 11 11 10 10 9 9 10 9 8 8 7 6 6 7
22 22 22 22 22 21 21 20 19 18 17 16 16 16 16 16 16 15 15 15 14 14 13 13 12 12 12 12 12 12 11 11 10 10 11 10 10 10 9 8 8 8
22 22 22 22 22 22 22 21 20 19 19 19 18 17 17 17 17 16 15 15 15 14 14 14 13 13 13 12 12 12 12 12 11 11 11 11 11 11 11 10 9 9
23 22 22 23 23 23 22 22 21 20 20 20 20 19 18 17 17 17 16 16 16 15 15 15 14 14 14 13 13 13 12 12 11 11 11 11 11 11 11 11 11 11
23 23 23 23 23 23 23 23 22 21 20 20 21 20 19 18 17 18 18 18 18 17 17 17 16 15 15 14 14 13 13 12 12 11 11 11 11 11 11 11 12 12
23 23 23 23 23 23 23 22 22 21 21 20 20 20 20 19 18 18 19 20 20 19 18 18 17 17 16 16 15 14 13 13 12 12 12 12 11 11 11 12 12 12
22 23 23 23 23 23 23 22 22 22 22 21 20 20 21 21 20 19 19 20 21 21 20 19 18 18 18 18 17 16 15 14 14 13 12 12 12 12 12 12 12 12
22 22 22 22 23 23 23 22 22 22 22 21 20 20 21 21 21 20 20 20 21 22 21 20 20 19 19 19 19 18 17 16 15 15 14 14 13 13 12 12 12 13
22 21 21 22 22 22 22 23 22 22 22 22 21 21 21 21 22 21 21 20 20 20 21 21 20 20 20 21 21 20 19 18 17 16 16 16 15 15 14 14 14 14
20 20 20 21 21 22 22 23 23 22 21 22 22 22 21 21 21 22 22 21 20 20 21 21 21 21 23 25 25 23 20 19 18 18 17 17 17 16 16 16 16 16
19 19 20 21 21 22 22 22 22 22 21 21 21 21 21 21 21 22 23 22 22 21 21 21 22 22 25 28 30 28 24 20 18 18 18 18 18 18 18 18 18 18
19 19 20 21 21 21 21 21 21 21 21 21 21 21 21 21 21 22 23 23 23 22 22 23 23 24 27 30 31 32 30 25 21 18 18 18 18 19 19 19 19 18
20 20 20 21 22 22 21 20 20 21 22 22 22 22 20 21 22 22 23 23 23 23 24 24 24 24 27 31 32 33 34 31 27 23 20 20 19 19 19 19 19 19
19 20 21 21 21 21 21 21 21 22 23 23 22 21 21 22 23 23 23 23 24 25 25 25 25 25 27 30 33 33 34 34 32 27 24 23 22 21 21 20 20 19
20 21 21 21 21 20 21 22 23 22 23 23 22 21 22 23 24 23 24 24 25 25 25 26 27 28 29 31 33 33 33 33 33 30 26 24 24 24 24 23 22 21
18 22 23 22 21 21 21 23 24 24 24 23 22 22 22 22 22 23 24 25 26 26 25 26 27 28 31 33 34 34 33 31 32 31 27 25 25 25 25 24 24 24
13 18 22 23 22 22 23 24 24 25 25 23 23 23 23 22 22 22 23 24 25 25 25 26 27 28 31 33 34 34 33 32 32 29 26 26 26 26 26 25 26 26
14 14 18 23 24 24 24 25 25 24 24 23 23 23 24 24 23 22 21 22 23 24 25 26 26 27 29 32 33 33 33 34 31 26 24 25 25 25 26 26 27 29
15 16 16 19 24 26 26 25 24 24 22 22 22 22 23 23 23 22 22 21 22 23 25 26 26 26 27 30 32 32 33 34 30 24 23 24 24 24 26 26 27 30
13 16 16 16 18 23 27 26 24 23 22 21 21 21 21 21 22 22 22 23 22 22 23 25 25 26 26 29 31 31 32 34 30 25 24 25 24 24 24 24 25 26
Wind_Direction
206 207 209 212 214 215 214 211 211 211 213 215 214 210 206 202 198 197 202 204 206 209 213 215 215 209 206 206 204 203 201 202 203 198 202 213 221 227 227 226 228 243
206 208 209 211 213 214 215 214 213 213 213 216 217 212 206 203 200 201 205 209 211 213 215 219 218 212 208 206 205 204 202 202 205 203 205 214 223 226 225 226 225 227
205 207 210 212 213 214 215 215 216 217 216 217 218 216 212 208 205 207 209 213 216 218 220 221 219 214 212 208 206 209 208 204 206 205 208 217 225 227 221 223 224 219
205 208 211 214 215 215 215 215 216 217 218 218 218 218 218 214 212 212 213 215 217 219 221 223 221 217 215 213 211 212 212 209 209 204 206 217 221 227 227 222 223 222
206 209 211 214 216 215 214 215 215 216 217 217 217 218 218 216 215 216 216 216 215 217 220 221 222 221 218 216 214 215 217 216 212 208 212 221 221 225 229 218 219 224
204 207 210 212 213 213 213 214 215 215 217 217 216 216 217 217 219 221 219 217 216 216 217 217 219 221 219 218 217 218 222 222 214 209 214 223 225 228 229 218 216 222
202 206 208 210 211 212 213 215 215 217 218 217 216 216 216 216 218 221 220 219 218 216 215 215 216 218 218 218 220 220 222 227 223 216 219 223 225 228 230 224 219 219
203 205 206 207 210 212 214 216 217 218 218 217 217 216 216 215 215 217 219 219 219 217 215 216 216 217 218 219 221 222 222 226 226 223 224 226 226 228 228 227 224 221
201 203 205 205 208 212 216 218 219 218 217 217 218 217 216 216 216 215 215 216 218 218 216 218 218 219 221 221 223 224 224 227 227 225 226 227 226 226 226 225 225 225
201 202 204 205 208 212 215 218 218 217 217 217 218 218 217 217 216 215 213 212 215 217 216 219 221 221 222 222 223 225 226 227 228 226 227 228 228 227 226 226 226 226
202 204 206 207 209 211 214 216 217 216 216 216 218 218 217 217 215 213 212 212 214 217 218 220 222 222 222 222 222 224 226 227 229 228 229 230 231 230 229 228 229 230
204 206 208 208 209 212 214 214 216 216 216 216 216 217 217 217 216 213 212 213 217 220 219 220 222 222 222 222 222 224 227 229 231 231 232 233 233 234 232 231 232 233
207 207 209 210 210 213 214 214 215 216 216 217 216 216 217 217 217 216 213 215 219 222 221 221 221 221 223 224 225 225 226 229 232 234 236 237 237 238 237 237 237 236
210 211 210 211 211 212 214 215 215 216 217 217 217 217 218 219 219 218 217 217 219 221 222 222 222 222 223 225 227 228 228 230 232 235 238 240 242 243 243 244 244 243
211 211 211 211 211 211 213 214 215 215 215 216 216 217 219 220 221 221 220 220 219 219 220 220 222 223 223 225 227 228 229 231 232 234 237 240 243 245 247 248 248 249
210 210 210 209 209 210 212 214 214 215 215 215 215 217 218 219 221 222 223 223 221 219 218 219 222 224 226 229 230 229 228 230 232 232 234 238 241 244 248 249 250 252
213 211 210 209 209 210 211 213 214 215 215 215 215 217 217 217 218 221 224 226 225 223 221 222 224 226 230 235 238 237 232 229 230 232 233 236 240 243 246 250 252 252
215 214 211 209 209 210 211 212 213 214 215 216 217 218 218 217 218 220 223 226 228 228 227 228 229 229 233 238 242 243 241 236 233 235 237 238 241 243 246 249 251 251
219 215 214 212 211 211 212 213 214 215 217 219 221 222 220 220 221 221 223 225 227 229 230 232 234 232 235 240 244 246 247 244 239 238 240 241 242 244 245 246 247 247
230 223 218 216 215 213 212 214 216 218 220 223 225 224 222 223 224 224 223 224 225 227 229 232 235 234 234 240 244 246 248 247 243 239 240 242 242 243 244 245 244 243
240 236 228 222 218 214 213 216 218 221 223 225 226 225 223 224 225 225 224 225 226 227 228 231 234 234 234 237 243 246 247 246 244 240 239 240 240 240 241 241 240 239
249 244 239 232 224 216 214 217 218 220 222 223 226 229 229 228 227 226 225 226 227 226 227 232 235 235 235 237 241 244 244 243 242 240 237 238 238 238 237 237 237 237
275 257 244 238 231 221 218 219 219 220 221 220 223 227 230 231 230 229 228 228 228 227 227 231 236 236 237 239 241 242 240 239 238 236 235 236 236 236 235 235 234 234
302 288 258 242 237 230 226 224 222 223 223 220 221 225 230 232 233 233 232 231 232 231 229 232 236 238 238 240 242 241 240 238 234 232 233 235 235 235 234 234 234 235
307 305 288 260 245 238 234 231 228 228 227 223 223 227 230 231 233 235 236 235 235 236 234 234 238 240 240 241 241 241 240 237 231 228 232 234 234 234 233 233 234 236
308 300 299 291 268 249 242 238 234 231 229 226 227 230 232 232 231 233 236 237 237 239 238 236 237 239 240 240 241 241 239 235 228 225 231 234 234 235 235 234 234 234
Height
846 847 849 851 853 855 856 858 859 861 862 863 864 865 865 866 868 869 870 871 871 872 873 873 874 875 876 876 877 877 878 879 879 880 881 881 882 882 882 883 883 883
843 845 847 849 851 853 855 856 858 859 860 862 863 864 865 866 867 868 869 870 871 872 872 873 874 874 875 876 876 877 877 878 879 879 880 881 881 881 882 882 882 883
841 843 845 847 849 851 853 854 856 858 859 860 861 862 864 864 866 867 868 869 870 871 872 872 873 874 874 875 876 876 877 877 878 878 879 880 880 881 881 881 881 882
838 841 842 845 847 849 851 853 854 856 857 859 860 861 862 863 865 866 867 868 869 870 871 871 872 873 874 874 875 876 876 877 877 878 878 879 879 880 880 880 881 881
835 838 840 843 845 847 849 850 852 853 855 857 858 859 861 862 863 865 866 867 867 868 869 870 871 872 873 873 874 875 875 876 876 877 877 878 878 879 879 879 880 880
833 835 837 840 842 845 846 848 850 851 853 854 856 858 859 860 862 863 864 865 866 867 868 869 870 870 871 872 873 874 874 875 875 876 876 877 877 878 878 879 879 880
830 832 835 837 840 842 844 845 847 849 851 852 854 855 857 859 860 861 863 864 865 865 866 867 868 869 870 871 871 872 873 874 874 875 876 876 876 877 877 878 878 879
828 830 832 834 837 839 841 843 845 847 848 850 852 853 855 856 858 859 861 862 863 864 865 866 867 868 868 869 870 871 872 873 873 874 874 875 875 876 876 877 877 877
825 828 830 832 834 837 838 840 842 844 846 848 849 851 852 854 855 857 859 860 861 862 863 864 865 866 867 867 868 869 870 871 872 872 873 873 874 874 874 875 875 876
822 825 827 829 831 834 836 838 840 842 843 845 847 848 850 851 852 854 856 857 859 860 861 862 863 864 865 866 867 868 868 869 870 871 871 872 872 872 873 873 873 874
820 822 824 826 828 830 832 835 837 839 840 842 844 845 847 848 850 851 853 854 856 857 858 860 861 862 863 864 865 866 867 867 868 869 869 870 870 870 871 871 872 872
817 819 821 823 825 827 829 832 834 835 837 839 840 842 844 845 847 848 849 851 852 854 856 857 858 859 860 861 863 863 864 866 866 867 867 868 868 868 869 869 870 870
814 816 818 820 822 824 826 828 830 832 834 835 837 839 840 842 843 845 846 847 849 851 853 854 855 856 858 858 860 861 862 863 864 865 865 865 866 866 867 867 867 868
811 813 815 817 819 821 823 825 827 829 831 832 834 835 837 839 840 842 843 844 846 847 849 851 852 853 854 855 857 858 859 860 861 862 863 863 864 864 864 865 865 865
808 811 812 815 817 818 820 822 824 826 828 829 831 832 834 836 837 839 840 841 843 844 846 848 849 850 851 852 854 855 856 858 858 859 860 860 861 861 862 862 862 863
806 808 810 812 814 816 817 819 821 823 825 826 828 829 831 832 834 836 837 838 840 841 842 844 845 846 847 848 850 851 853 855 855 856 857 857 858 858 859 859 859 860
805 806 808 810 811 813 814 816 818 820 822 824 825 826 828 829 831 832 834 835 836 837 839 840 841 842 842 844 846 848 850 851 852 853 854 854 855 855 855 856 856 857
803 804 806 807 809 810 812 813 816 818 819 821 822 823 825 826 827 828 830 831 833 834 835 836 836 837 838 840 841 843 845 848 849 850 851 851 851 851 852 852 852 853
801 802 803 804 806 807 809 811 813 815 816 817 818 820 822 823 823 825 826 827 829 830 831 831 832 833 834 835 837 839 841 843 845 846 847 847 848 848 848 849 849 849
799 799 800 801 803 804 806 808 810 811 812 814 815 817 818 819 819 821 822 823 824 825 826 827 828 829 830 831 832 834 836 838 840 842 843 843 844 844 844 845 845 846
797 797 798 799 800 801 803 804 806 807 808 810 811 813 813 814 815 816 817 818 819 820 821 822 823 824 825 826 827 828 831 833 835 836 838 839 839 840 840 840 841 841
794 794 795 796 797 798 798 799 801 802 803 805 807 809 809 810 811 812 812 813 814 815 816 817 817 818 820 821 822 824 826 828 830 831 832 834 834 835 835 836 836 837
791 791 792 793 794 794 794 795 796 796 798 800 802 804 805 806 806 807 808 808 809 810 811 812 812 813 815 816 817 820 822 824 825 826 827 828 829 830 831 831 831 831
790 789 789 790 790 790 790 790 791 792 793 795 796 798 799 801 802 803 804 804 805 805 806 807 807 808 810 811 813 816 818 819 821 823 823 824 824 825 826 826 826 826
789 788 788 787 787 787 787 787 788 789 790 791 792 793 794 796 797 798 799 799 800 801 802 802 803 804 805 806 808 811 813 815 817 819 819 819 819 820 820 821 821 821
789 788 787 786 784 783 783 784 785 786 787 789 789 790 791 791 792 793 794 795 795 796 797 798 798 799 800 801 802 805 807 810 812 814 814 815 815 815 816 816 816 816